Weather in Srednee

Ukraine / Zakarpattia District     48°32′20″N   22°30′25″E
temp.,
°C
wind,
m/s
gust,
m/s
humid.,
%
clouds,
%
prec.,
mm/h
press.,
hPa
HPBL,
m
26 october, tue
tue2600:00+5ene22561 0.0 102813
03:00+4ne11583 0.0 102710
06:00+4e22595 0.0 102610
09:00+4e11575 0.0 102612
12:00+10sse233716 0.0 1026492
15:00+13ssw113176 0.0 1024711
18:00+10w1140100 0.0 102310
21:00+7n114777 0.0 102510
27 october, wed
wed2700:00+5ne1152100 0.0 102610
03:00+5e115597 0.0 102610
06:00+4e22610 0.0 102710
09:00+4ne116114 0.0 102812
12:00+10s11435 0.0 1028417
15:00+13ssw113830 0.0 1027661
18:00+10sw0050100 0.0 102710
21:00+7ne1156100 0.0 102810
28 october, thu
thu2800:00+6ene116287 0.0 102910
03:00+5ene116666 0.0 102910
06:00+5ene117018 0.0 102910
09:00+5ene116913 0.0 102910
12:00+12s11465 0.0 1029379
15:00+14sw10395 0.0 1027575
18:00+11nw11505 0.0 102610
21:00+9ne226022 0.0 102711
29 october, fri
fri2900:00+8ne226714 0.0 102610
03:00+7ne217064 0.0 102610
06:00+7ene227061 0.0 102510
09:00+7ene116656 0.0 102610
12:00+14sse234417 0.0 1025375
15:00+17sse24327 0.0 1024706
18:00+13e22415 0.0 102310
21:00+11ene22504 0.0 102411
30 october, sat
sat3000:00+9e22575 0.0 102410
03:00+8e11625 0.0 102510
06:00+7e22687 0.0 102510
09:00+7e117164 0.0 102610
12:00+14sse224465 0.0 1026365
15:00+17s22355 0.0 1024640
18:00+13e11455 0.0 102410
21:00+10ene22545 0.0 102411